Location: Kellogg
(38.0159°N, 90.0546°W)
Time: 06:45:13
(UTC+00:00)

S-56A Canister/Altair - Pass Details

Date: 16 September 2024
Orbit: 636 x 2487 km, 38.9° (Epoch: 09 October)

Event Time Altitude Azimuth Distance (km) Brightness Sun altitude
Rises 22:42:40 0° 217° (SW) 2,940 11.3 15.5°
Reaches altitude 10° 22:45:01 10° 206° (SSW) 2,100 10.4 15.0°
Maximum altitude 22:49:08 30° 144° (SE) 1,359 8.7 14.2°
Drops below altitude 10° 22:54:19 10° 85° (E) 2,672 9.7 13.2°
Sets 22:57:42 0° 76° (ENE) 3,909 10.5 12.5°
